Change the Weather History Date:

Friday, November 23, 2012

  Actual Average Record
Temperature  
Mean Temperature 46 °F -  
Max Temperature 47 °F - - ()
Min Temperature 44 °F - - ()
Degree Days  
Heating Degree Days 20    
Moisture  
Dew Point 43 °F    
Average Humidity 87    
Maximum Humidity 95    
Minimum Humidity 72    
Precipitation  
Precipitation 0.00 in - - ()
Sea Level Pressure  
Sea Level Pressure 29.99 in    
Wind  
Wind Speed 26 mph ()    
Max Wind Speed 43 mph    
Max Gust Speed 51 mph    
T = Trace of Precipitation, MM = Missing Value Source: Averaged Metar Reports

Daily Weather History Graph

Daily Weather History Graph

Search for Another Location

Airport or City:

Trip Planner

Search our weather history database for the weather conditions in past years. The results will help you decide how hot, cold, wet, or windy it might be!

Date:

Astronomy

Nov. 23, 2012 Rise Set
Actual Time 7:42 AM PST 4:26 PM PST
Civil Twilight 7:05 AM PST 5:02 PM PST
Nautical Twilight 6:26 AM PST 5:41 PM PST
Astronomical Twilight 5:48 AM PST 6:20 PM PST
Moon 2:02 PM PST (11/23) 2:45 AM PST (11/23)
Length of Visible Light 9h 56m
Length of Day
8h 44m
Waxing Gibbous, 80% of the Moon is Illuminated
Nov 23
Waxing Gibbous
Nov 28
Full
Dec 6
Last Quarter
Dec 13
New
Dec 19
First Quarter

Hourly Weather History & Observations

Time (PST) Temp. Windchill Dew Point Humidity Pressure Visibility Wind Dir Wind Speed Gust Speed Precip Events Conditions
12:00 AM 45.1 °F 35.5 °F 40.3 °F 83% 30.03 in - SE 29.9 mph - N/A   Unknown
1:00 AM 44.8 °F 34.2 °F 39.9 °F 83% 29.99 in - ESE 35.7 mph 41.4 mph N/A   Unknown
2:00 AM 46.0 °F 35.2 °F 41.0 °F 83% 29.94 in - ESE 41.4 mph 49.5 mph N/A   Unknown
3:00 AM 44.8 °F 34.0 °F 41.5 °F 88% 29.94 in - ESE 36.8 mph 44.9 mph N/A   Unknown
4:00 AM 45 °F - 42 °F 83% 29.91 in - ESE 41.4 mph - -  
4:00 AM 45.3 °F 34.2 °F 41.5 °F 87% 29.91 in - ESE 41.4 mph 48.3 mph N/A   Unknown
5:00 AM 45.7 °F 34.6 °F 41.9 °F 87% 29.89 in - ESE 42.6 mph 50.6 mph N/A   Unknown
6:00 AM 45.9 °F 34.8 °F 42.3 °F 87% 29.91 in - ESE 42.6 mph 49.5 mph N/A   Unknown
7:00 AM 46.2 °F 35.6 °F 42.8 °F 88% 29.91 in - ESE 40.3 mph 47.2 mph N/A   Unknown
8:00 AM 46.0 °F 35.9 °F 43.0 °F 89% 29.96 in - ESE 35.7 mph 48.3 mph N/A   Unknown
9:00 AM 46.2 °F 36.8 °F 43.5 °F 90% 29.97 in - ESE 31.1 mph 41.4 mph N/A   Unknown
10:00 AM 46 °F - 44 °F 88% 29.99 in - ESE 29.9 mph - -  
10:00 AM 46.2 °F 36.9 °F 43.5 °F 90% 29.99 in - ESE 29.9 mph - N/A   Unknown
11:00 AM 46.9 °F - 44.1 °F 90% 29.99 in - East 24.2 mph 29.9 mph N/A   Unknown
12:00 PM 47.3 °F - 44.1 °F 88% 29.99 in - ESE 23.0 mph - N/A   Unknown
1:00 PM 47.1 °F - 44.2 °F 90% 30.00 in - ESE 20.7 mph - N/A   Unknown
2:00 PM 47.3 °F - 44.8 °F 91% 29.98 in - ESE 20.7 mph - N/A   Unknown
3:00 PM 46.9 °F - 44.4 °F 91% 30.00 in - SE 18.4 mph - N/A   Unknown
4:00 PM 47 °F - 45 °F 89% 30.01 in - ESE 15.0 mph - -  
4:00 PM 46.8 °F - 44.8 °F 93% 30.01 in - ESE 15.0 mph - N/A   Unknown
5:00 PM 46.9 °F - 45.0 °F 93% 30.01 in - ESE 13.8 mph - N/A   Unknown
6:00 PM 46.9 °F - 45.3 °F 94% 30.01 in - SE 10.4 mph - N/A   Unknown
7:00 PM 46.6 °F - 45.1 °F 95% 30.01 in - ESE 9.2 mph - N/A   Unknown
8:00 PM 46.6 °F - 43.9 °F 90% 30.03 in - South 6.9 mph - N/A   Unknown
9:00 PM 47.5 °F - 39.0 °F 72% 30.04 in - South 10.4 mph - N/A   Unknown
10:00 PM 47 °F - 44 °F 84% 30.06 in - South 9.2 mph - -  
10:00 PM 46.8 °F - 43.7 °F 89% 30.06 in - South 9.2 mph - N/A   Unknown
11:00 PM 46.0 °F 38.5 °F 38.3 °F 74% 30.05 in - SW 19.6 mph - N/A   Unknown